Wind_Speed
53 55 56 58 61 65 68 71 72 74 77 78 78 80 80 78 78 78 80 80 82 82 82 81 81 82 82 81 81 82 81 81 80 80 80 79 78 77 77 77 76 76 75
48 49 48 50 52 55 59 63 67 69 69 70 69 71 74 75 74 75 78 78 81 82 80 80 79 81 81 80 81 82 81 81 80 80 81 80 80 78 77 78 78 76 74
44 45 47 47 49 52 53 55 56 58 61 64 63 62 62 63 63 65 67 67 68 68 68 70 73 74 75 75 76 77 79 79 77 76 75 74 75 75 74 71 71 72 71
40 41 44 45 48 48 50 52 54 55 55 55 54 53 53 53 53 54 56 58 60 61 62 62 61 63 65 65 66 66 68 67 68 66 65 67 65 65 64 61 62 62 61
36 38 40 41 45 45 44 46 48 51 52 50 49 45 45 45 45 46 47 47 50 53 55 55 54 56 59 62 62 63 63 63 62 57 56 55 54 51 51 50 53 51 50
36 36 37 38 40 41 41 43 47 48 47 48 45 40 37 34 27 24 27 38 45 47 46 45 47 47 50 53 54 54 55 56 55 55 53 50 48 45 42 43 39 35 32
38 39 40 40 40 39 39 39 38 41 41 39 38 39 31 25 15 16 24 27 33 39 38 34 36 37 37 41 46 44 43 42 41 40 43 40 40 41 36 36 31 27 29
39 40 40 43 43 40 38 37 36 36 35 31 36 36 37 32 19 17 24 25 27 24 33 36 37 36 39 41 42 39 35 34 31 31 32 34 34 35 35 33 30 28 24
43 43 43 44 44 42 37 36 32 33 31 36 39 41 46 41 33 29 29 29 34 36 36 36 37 39 40 38 40 36 33 31 29 30 31 32 32 35 33 30 26 20 19
44 44 43 43 44 40 35 35 31 30 30 39 41 43 45 40 36 34 30 30 37 37 36 34 31 28 25 33 39 33 23 25 29 30 26 27 31 29 21 13 16 23 16
41 42 42 43 43 40 32 32 29 28 30 38 37 44 36 40 43 35 32 39 40 32 22 16 24 21 17 24 32 24 22 31 33 22 23 27 17 17 21 19 18 21 16
36 41 43 46 46 38 30 27 27 26 27 34 38 43 42 38 45 46 38 41 38 37 31 21 24 19 20 22 21 23 23 27 23 22 21 21 19 19 23 20 14 16 13
38 40 43 46 45 39 31 27 24 27 25 33 41 43 44 41 41 41 49 47 41 41 37 36 21 15 21 21 20 21 19 20 17 21 20 29 24 20 16 20 17 15 19
40 40 44 46 46 41 31 27 22 28 30 42 41 42 44 37 40 40 50 49 46 37 37 31 16 19 15 21 23 23 26 20 18 23 30 31 21 16 15 17 19 20 23
40 40 43 45 46 39 31 28 21 30 34 43 45 49 43 37 47 52 54 53 48 42 37 28 23 20 15 24 26 27 24 22 23 30 33 28 21 18 21 22 22 22 24
39 39 40 42 43 36 32 27 23 31 41 37 43 46 45 44 54 58 54 53 54 45 37 37 32 23 24 27 32 32 31 24 26 34 30 28 26 20 23 26 27 28 26
37 35 38 39 40 36 34 29 23 25 46 43 48 51 53 52 56 54 51 44 36 45 44 41 37 33 33 34 36 33 34 28 31 36 32 31 28 26 28 29 32 29 29
35 32 35 39 39 35 33 32 25 24 50 56 47 59 63 58 53 52 47 37 32 27 37 40 41 39 36 32 40 36 35 35 37 39 34 34 30 31 35 34 33 36 38
31 30 35 37 38 35 30 27 27 27 37 58 62 52 66 66 64 56 48 52 41 36 35 34 35 37 32 35 38 35 34 41 39 44 40 39 37 35 38 37 39 43 42
28 30 30 33 35 32 32 28 24 24 36 51 63 64 60 58 64 68 63 54 55 50 41 41 40 39 33 34 38 36 37 39 47 44 42 40 37 40 41 45 45 45 46
25 27 25 29 32 32 31 30 24 24 31 48 51 66 68 66 60 62 66 64 51 51 55 47 44 42 42 39 43 40 41 45 51 51 48 43 45 40 42 46 48 52 54
27 23 24 27 32 32 28 28 27 21 25 42 52 53 63 65 64 61 64 68 67 57 52 50 47 43 47 45 47 44 46 42 42 51 50 47 47 47 51 52 54 57 57
26 24 23 24 26 30 31 27 27 25 19 29 48 55 52 51 57 56 61 65 65 63 59 54 52 46 53 49 50 50 46 45 43 44 53 53 52 53 56 55 56 58 60
27 24 20 19 25 28 31 27 25 27 23 20 34 53 52 48 45 44 46 58 60 59 58 58 54 55 54 53 52 53 57 50 41 45 48 54 57 61 58 60 61 64 64
28 21 21 21 23 23 27 27 25 24 24 25 21 36 53 48 51 49 45 40 50 52 54 54 55 53 50 51 54 52 52 53 52 54 53 53 57 58 57 58 64 67 71
27 21 20 22 22 25 22 24 24 21 22 23 25 27 36 48 48 46 48 42 43 46 48 56 58 58 53 52 54 53 54 56 55 57 57 60 60 60 62 65 69 69 71
Wind_Direction
267 265 267 269 267 264 262 262 261 260 258 257 258 257 256 255 255 255 256 259 260 259 259 259 259 260 260 260 261 263 263 264 265 266 266 267 269 272 273 274 275 275 276
270 270 270 270 269 268 268 267 265 264 265 262 260 260 260 260 258 258 257 258 259 260 260 260 262 263 263 264 263 263 264 264 267 267 267 269 269 270 272 273 275 276 277
272 271 271 271 271 271 271 271 271 270 268 268 267 266 264 263 262 261 258 258 259 261 263 262 261 261 262 262 262 262 262 263 266 267 269 270 271 273 274 275 276 276 278
272 274 276 275 275 277 277 275 273 270 269 268 268 267 264 261 259 258 259 258 258 257 259 259 260 260 261 261 262 262 262 263 265 266 267 271 273 274 276 278 280 281 280
281 278 277 277 277 275 278 276 271 269 269 266 261 258 259 255 254 257 255 256 257 257 258 258 258 259 259 260 260 261 263 263 263 267 268 271 273 276 277 277 282 279 283
294 289 288 288 287 288 283 278 274 268 265 261 257 255 246 245 251 251 258 253 252 250 250 250 254 256 258 259 260 262 264 265 267 265 268 271 273 276 276 275 276 274 272
296 291 291 290 291 289 291 283 277 271 266 257 244 244 222 199 213 250 267 258 254 246 245 242 247 255 262 264 264 265 267 268 265 263 265 266 266 270 271 271 268 270 268
298 294 291 293 297 293 295 290 284 271 263 256 237 227 204 193 181 234 255 276 257 246 237 243 252 263 267 267 263 264 266 262 258 257 262 263 264 263 263 268 266 261 260
302 297 296 295 297 296 297 297 282 274 256 236 229 212 202 198 185 224 239 262 264 263 250 253 256 268 264 262 261 263 263 254 257 256 256 257 258 260 271 266 255 243 192
302 297 298 298 298 300 295 297 282 265 244 227 228 211 196 197 203 204 228 230 265 256 254 267 267 260 256 255 259 257 238 241 246 250 243 264 266 266 246 213 183 184 188
299 296 300 301 304 300 295 295 284 259 238 225 215 198 199 196 202 205 220 231 249 257 252 264 265 250 264 257 250 239 235 250 254 246 261 268 234 203 176 174 185 198 211
294 295 300 302 308 301 292 295 281 246 247 226 209 206 202 197 204 215 219 236 249 257 247 262 259 286 276 269 260 228 227 242 243 247 271 219 183 179 180 200 219 232 258
295 293 299 304 306 303 294 295 275 238 239 224 197 197 194 206 206 202 224 236 248 259 258 252 268 272 280 276 253 241 216 234 249 250 226 187 191 193 198 214 247 259 266
294 300 303 305 304 305 293 296 274 237 227 203 197 198 200 201 210 225 236 239 247 246 258 263 253 272 264 272 257 223 225 235 248 254 192 189 204 219 237 259 272 270 275
295 302 303 300 303 304 294 297 276 236 215 209 208 201 206 216 224 230 236 239 240 245 253 255 257 246 268 282 276 230 225 224 258 202 198 208 215 229 257 265 277 278 277
290 298 296 299 303 303 298 295 273 230 212 212 208 201 202 199 210 220 227 233 243 244 241 254 263 249 268 279 276 235 226 225 238 199 214 221 231 252 259 267 278 279 285
289 292 295 303 307 303 298 297 271 241 213 206 214 202 203 202 209 218 227 236 244 241 241 250 255 253 266 269 270 233 227 221 219 206 218 228 249 260 261 265 269 277 287
291 291 298 305 307 308 306 297 278 262 218 211 212 214 212 212 219 226 225 237 241 241 242 245 254 255 256 264 260 238 232 217 213 212 222 234 248 261 261 265 273 277 280
290 293 302 306 309 312 308 298 288 268 228 217 214 217 216 221 222 228 235 235 239 250 251 248 251 258 267 261 251 227 229 219 216 216 227 237 245 260 263 265 277 277 279
282 294 304 307 318 317 312 308 293 269 240 222 220 219 221 229 232 233 236 245 249 250 250 253 253 255 258 258 227 224 232 224 224 228 234 241 252 260 263 272 277 279 278
280 293 305 313 323 325 316 313 307 275 246 229 226 227 231 229 232 234 239 236 242 254 253 252 244 257 256 246 231 230 232 228 225 230 235 248 265 274 278 274 277 276 278
273 290 297 312 320 323 320 322 320 302 255 235 232 231 233 233 234 234 235 237 237 241 244 241 245 249 244 237 230 230 234 234 240 243 244 258 261 264 273 276 274 279 281
268 282 294 308 314 327 327 327 331 317 285 248 235 235 237 236 235 238 241 242 243 243 238 236 243 247 238 242 237 236 237 243 249 252 248 259 264 270 274 275 276 277 284
263 274 291 297 312 325 331 325 331 334 316 279 244 236 235 233 227 231 242 245 241 239 239 237 239 238 239 246 239 248 246 251 254 259 260 263 268 268 274 273 274 281 282
258 265 281 291 308 320 332 331 326 337 327 310 278 248 238 234 231 236 240 249 240 241 234 228 231 239 245 246 248 248 252 254 258 259 262 266 265 265 269 269 271 277 280
254 257 273 286 298 308 327 338 337 326 340 325 296 273 248 235 238 235 240 243 242 233 234 230 230 233 239 244 245 249 251 254 255 259 266 266 264 268 269 270 271 275 278
Height
10778 10777 10775 10774 10773 10773 10774 10775 10776 10777 10779 10781 10784 10787 10792 10797 10802 10807 10806 10803 10803 10808 10810 10813 10817 10816 10819 10822 10823 10821 10822 10823 10823 10825 10826 10828 10829 10829 10829 10830 10830 10829 10829
10771 10768 10766 10765 10764 10762 10760 10761 10763 10763 10764 10767 10770 10774 10778 10782 10787 10792 10794 10793 10791 10793 10797 10801 10804 10805 10807 10809 10809 10810 10810 10810 10812 10813 10814 10816 10817 10819 10820 10820 10821 10820 10820
10761 10759 10758 10756 10754 10752 10752 10750 10750 10750 10751 10753 10756 10760 10763 10767 10771 10776 10778 10780 10780 10781 10782 10786 10790 10791 10793 10795 10795 10796 10797 10800 10801 10802 10803 10805 10805 10808 10808 10809 10809 10810 10811
10753 10752 10750 10747 10746 10744 10743 10741 10740 10738 10740 10742 10744 10747 10749 10750 10753 10757 10760 10764 10766 10768 10770 10772 10775 10778 10780 10781 10782 10784 10785 10788 10788 10791 10793 10795 10797 10797 10799 10799 10799 10800 10801
10745 10744 10742 10740 10737 10737 10735 10732 10730 10728 10729 10730 10731 10734 10736 10738 10740 10744 10747 10751 10753 10756 10758 10762 10764 10766 10768 10769 10771 10772 10776 10777 10778 10782 10785 10787 10788 10789 10790 10791 10792 10791 10792
10737 10735 10732 10730 10728 10726 10725 10723 10720 10717 10717 10718 10722 10724 10725 10730 10733 10738 10738 10740 10742 10745 10748 10752 10755 10756 10758 10760 10761 10763 10766 10768 10772 10774 10776 10778 10779 10780 10782 10783 10783 10783 10784
10731 10728 10724 10721 10720 10717 10715 10712 10709 10705 10705 10707 10710 10712 10717 10720 10724 10731 10731 10734 10736 10739 10741 10745 10748 10749 10752 10753 10754 10756 10759 10762 10764 10766 10767 10769 10772 10774 10774 10774 10775 10775 10777
10724 10722 10718 10715 10711 10707 10706 10702 10698 10695 10698 10697 10697 10702 10708 10712 10712 10718 10729 10728 10731 10735 10736 10740 10743 10744 10748 10749 10747 10749 10754 10756 10756 10758 10761 10763 10764 10765 10764 10767 10766 10768 10770
10715 10713 10711 10708 10704 10700 10698 10693 10689 10687 10689 10687 10686 10695 10698 10699 10702 10713 10718 10723 10725 10729 10733 10735 10738 10740 10743 10743 10737 10744 10746 10749 10751 10753 10756 10757 10757 10758 10759 10759 10759 10761 10764
10709 10704 10702 10699 10696 10692 10691 10685 10680 10680 10682 10679 10682 10690 10696 10697 10699 10706 10715 10719 10716 10721 10729 10732 10733 10734 10739 10736 10731 10734 10741 10744 10746 10748 10750 10751 10752 10753 10752 10754 10755 10758 10761
10701 10697 10694 10691 10688 10683 10682 10677 10672 10673 10672 10672 10678 10686 10689 10692 10694 10700 10706 10709 10710 10718 10726 10727 10728 10732 10732 10730 10727 10731 10736 10740 10741 10744 10746 10747 10748 10748 10749 10752 10754 10755 10756
10695 10691 10687 10683 10679 10675 10673 10670 10666 10667 10668 10668 10674 10681 10684 10689 10695 10695 10700 10702 10706 10711 10722 10724 10726 10730 10726 10724 10724 10728 10732 10733 10738 10740 10740 10743 10744 10746 10747 10750 10750 10752 10753
10687 10684 10680 10675 10671 10667 10665 10663 10661 10661 10665 10665 10672 10677 10680 10686 10691 10692 10695 10697 10702 10705 10712 10720 10722 10726 10726 10722 10720 10724 10728 10729 10732 10734 10735 10739 10740 10742 10744 10745 10746 10747 10747
10679 10676 10670 10666 10661 10659 10657 10656 10655 10656 10661 10664 10670 10674 10679 10685 10689 10688 10692 10693 10698 10702 10705 10712 10717 10721 10722 10716 10716 10721 10725 10726 10726 10729 10732 10734 10736 10737 10738 10739 10741 10743 10743
10671 10668 10665 10659 10654 10651 10649 10648 10649 10650 10655 10660 10665 10671 10675 10681 10683 10686 10685 10687 10691 10698 10704 10708 10711 10715 10718 10715 10712 10718 10720 10720 10723 10724 10727 10728 10730 10733 10735 10734 10736 10738 10739
10665 10664 10660 10655 10649 10644 10642 10641 10642 10645 10649 10654 10660 10665 10668 10671 10675 10676 10679 10683 10687 10694 10699 10701 10706 10709 10713 10713 10709 10714 10715 10715 10718 10721 10724 10724 10725 10726 10728 10730 10731 10732 10731
10660 10658 10654 10649 10643 10638 10634 10633 10634 10637 10641 10647 10652 10657 10660 10663 10666 10669 10673 10677 10682 10688 10692 10695 10699 10701 10708 10708 10703 10707 10710 10710 10712 10716 10717 10719 10721 10721 10723 10723 10724 10725 10724
10652 10650 10647 10642 10638 10632 10628 10624 10624 10628 10632 10639 10644 10649 10652 10655 10658 10661 10666 10671 10676 10680 10685 10688 10692 10695 10701 10699 10696 10701 10704 10705 10707 10710 10711 10712 10713 10715 10715 10716 10717 10717 10717
10644 10642 10640 10635 10630 10627 10623 10619 10616 10616 10621 10627 10634 10639 10644 10648 10653 10656 10657 10662 10669 10673 10678 10681 10685 10687 10693 10693 10691 10693 10698 10701 10702 10704 10706 10706 10707 10708 10709 10709 10710 10711 10709
10638 10636 10634 10630 10625 10620 10615 10613 10610 10608 10609 10616 10622 10627 10634 10640 10645 10648 10651 10655 10660 10667 10670 10675 10679 10680 10684 10688 10685 10688 10692 10696 10696 10698 10699 10698 10700 10701 10701 10702 10702 10700 10699
10633 10631 10628 10625 10620 10616 10610 10607 10603 10601 10601 10606 10611 10617 10621 10628 10634 10639 10642 10649 10654 10655 10661 10667 10671 10672 10677 10681 10680 10680 10683 10686 10687 10688 10689 10692 10694 10694 10694 10693 10691 10690 10690
10627 10625 10623 10619 10615 10612 10606 10602 10596 10594 10595 10597 10602 10606 10611 10617 10626 10631 10634 10641 10646 10649 10651 10657 10661 10665 10667 10673 10675 10673 10676 10681 10684 10684 10686 10685 10686 10685 10684 10682 10681 10681 10679
10620 10619 10617 10615 10611 10608 10601 10597 10592 10588 10589 10591 10594 10597 10601 10608 10615 10622 10626 10630 10634 10639 10643 10647 10652 10656 10658 10662 10667 10667 10669 10672 10676 10676 10676 10677 10676 10674 10673 10672 10671 10669 10667
10614 10614 10613 10611 10608 10603 10599 10594 10589 10583 10582 10585 10587 10588 10594 10600 10606 10612 10616 10619 10623 10627 10632 10638 10643 10646 10649 10653 10657 10659 10661 10662 10664 10665 10666 10666 10665 10665 10662 10660 10659 10658 10656
10607 10608 10608 10606 10603 10600 10598 10592 10588 10583 10578 10576 10578 10581 10584 10593 10599 10604 10609 10610 10612 10616 10621 10627 10632 10634 10639 10642 10646 10649 10651 10653 10653 10654 10654 10654 10653 10651 10650 10649 10648 10645 10642
10600 10601 10601 10599 10598 10597 10595 10591 10587 10583 10579 10574 10573 10573 10577 10585 10589 10595 10598 10602 10603 10605 10611 10616 10621 10625 10629 10632 10636 10638 10640 10641 10642 10643 10643 10642 10640 10640 10638 10637 10635 10635 10631